EW0724 Weather Reports


Display with metric or nautical units.
time (UTC)temp
F
wind
direction
speed
MPH
gust
MPH
rain 1hr
in
rain 24hr
in
rain mn
in
humidity
%
barometer
mb
20260503174507 59 217 8.0 16.0 0.00 0.00 0.00 49 1013.7
20260503173005 59 183 7.0 18.0 0.00 0.00 0.00 47 1013.9
20260503171504 59 191 8.0 15.0 0.00 0.00 0.00 48 1014.0
20260503081508 40 183 0.0 0.0 0.00 0.00 0.00 55 1016.0
20260503071505 40 183 0.0 0.0 0.00 0.00 0.00 52 1016.2
20260503054521 41 183 0.0 0.0 0.00 0.00 0.00 33 1016.8
20260503053006 41 183 0.0 0.0 0.00 0.00 0.00 35 1016.8
20260503051504 41 183 0.0 0.0 0.00 0.00 0.00 38 1016.9
20260503050002 41 183 0.0 0.0 0.00 0.00 0.00 42 1016.9
20260503044502 41 183 0.0 0.0 0.00 0.00 0.00 43 1016.9
20260503043105 42 183 0.0 0.0 0.00 0.00 0.00 48 1016.9
20260503041600 42 183 0.0 0.0 0.00 0.00 0.00 50 1016.9
20260503040121 42 183 0.0 0.0 0.00 0.00 0.00 54 1017.0
20260503034600 43 183 0.0 0.0 0.00 0.00 0.00 57 1017.0
20260503033100 43 184 0.0 0.0 0.00 0.00 0.00 59 1016.9
20260503031548 43 184 0.0 0.0 0.00 0.00 0.00 62 1017.0
20260503030047 43 185 0.0 0.0 0.00 0.00 0.00 64 1017.1
20260503024529 44 185 0.0 0.0 0.00 0.00 0.00 65 1017.0
20260503023027 44 185 0.0 0.0 0.00 0.00 0.00 65 1017.1
20260503021528 45 185 0.0 0.0 0.00 0.00 0.00 64 1017.1
20260503020028 46 185 0.0 0.0 0.00 0.00 0.00 62 1017.0
20260503014527 47 185 0.0 0.0 0.00 0.00 0.00 60 1016.8
20260503013031 48 185 0.0 0.0 0.00 0.00 0.00 58 1016.7
20260503011526 49 185 0.0 0.0 0.00 0.00 0.00 55 1016.7
20260503010027 50 185 0.0 0.0 0.00 0.00 0.00 45 1016.7
20260503004510 51 185 0.0 0.0 0.00 0.00 0.00 41 1016.7
20260503003007 52 185 0.0 2.0 0.00 0.00 0.00 39 1016.7
20260503001601 52 192 0.0 3.0 0.00 0.00 0.00 39 1016.6
20260503000048 53 315 0.0 3.0 0.00 0.00 0.00 38 1016.6
20260502234541 53 269 0.0 2.0 0.00 0.00 0.00 37 1016.6
20260502233037 54 331 0.0 3.0 0.00 0.00 0.00 35 1016.6
20260502231534 54 28 1.0 4.0 0.00 0.00 0.00 36 1016.7
20260502230036 54 204 3.0 7.0 0.00 0.00 0.00 36 1016.7
20260502224534 53 239 1.0 7.0 0.00 0.00 0.00 37 1016.7
20260502223033 55 163 1.0 7.0 0.00 0.00 0.00 35 1016.8
20260502221537 55 261 1.0 6.0 0.00 0.00 0.00 36 1016.7
20260502220030 54 305 3.0 8.0 0.00 0.00 0.00 34 1016.8
20260502214517 54 311 1.0 8.0 0.00 0.00 0.00 33 1016.8
20260502213017 54 285 2.0 7.0 0.00 0.00 0.00 35 1016.7
20260502211516 53 309 2.0 7.0 0.00 0.00 0.00 37 1016.7
20260502210014 53 313 1.0 7.0 0.00 0.00 0.00 35 1016.8
20260502204514 53 20 3.0 6.0 0.00 0.00 0.00 36 1016.9
20260502203011 52 293 3.0 6.0 0.00 0.00 0.00 37 1017.1
20260502201511 53 30 2.0 6.0 0.00 0.00 0.00 36 1017.2
20260502200010 54 176 3.0 10.0 0.00 0.00 0.00 38 1017.2
20260502194506 54 24 1.0 6.0 0.00 0.00 0.00 39 1017.5
20260502193007 53 53 2.0 7.0 0.00 0.00 0.00 38 1017.7
20260502191559 53 234 3.0 8.0 0.00 0.00 0.00 40 1017.7
20260502190106 52 348 0.0 6.0 0.00 0.00 0.00 39 1017.8
20260502184559 52 42 1.0 4.0 0.00 0.00 0.00 39 1018.0
20260502183107 52 324 1.0 9.0 0.00 0.00 0.00 39 1018.1
20260502181550 52 275 2.0 5.0 0.00 0.00 0.00 42 1018.2